Temperature
4 5 5 5 5 5 5 5 5 5 5 6 6 6 6 7 7 6 6 6 6 6 6 5 5 5 5 5 5 5 5 5 5 5 5 5 5 5 5 5 4 4 4 4
3 4 4 4 5 5 5 5 5 5 6 6 6 6 6 6 6 6 6 6 6 6 5 5 5 5 5 5 5 5 5 5 5 4 4 5 5 5 5 4 4 4 4 4
3 4 4 4 4 5 4 5 5 5 6 6 5 5 5 6 6 5 6 6 5 5 5 5 5 5 5 4 4 4 4 4 4 4 4 4 4 4 4 4 4 4 4 4
2 3 3 5 5 5 5 5 5 5 6 5 5 6 6 6 6 6 6 5 5 5 5 5 5 4 4 4 4 4 4 4 4 4 3 3 3 4 4 4 4 4 4 3
2 2 3 4 5 5 4 5 5 5 5 5 5 5 5 5 6 6 6 5 5 5 4 4 4 4 4 4 4 3 3 3 3 3 3 3 3 3 3 3 3 3 3 3
1 2 3 4 5 5 5 4 4 4 4 4 4 3 3 5 5 5 5 5 5 4 4 4 3 3 3 3 3 3 3 3 3 3 2 2 2 2 2 2 2 2 2 2
1 2 3 3 4 5 4 4 4 4 4 4 4 4 5 4 4 4 4 4 4 4 3 3 3 3 3 3 3 3 2 2 2 2 2 2 2 2 2 2 2 2 2 2
1 1 2 3 3 3 3 4 4 4 4 4 4 4 4 3 3 3 3 3 3 3 3 2 2 2 2 2 2 2 2 2 2 2 2 1 1 1 1 1 1 1 1 1
1 2 2 3 3 3 3 3 3 4 4 4 3 3 3 2 3 3 2 2 2 2 2 2 2 2 2 2 1 1 1 1 1 1 1 1 1 1 1 1 1 1 0 0
-0 0 1 2 2 2 3 3 3 3 3 3 2 2 2 2 1 2 2 2 2 2 2 1 1 1 1 1 1 1 1 1 1 1 1 1 0 0 0 -0 -0 -0 -0 -0
-1 -0 1 1 2 2 2 2 2 2 2 2 2 1 1 1 1 1 1 1 1 1 1 1 1 1 0 0 0 1 0 0 0 0 -0 -0 -0 -1 -1 -1 -1 -1 -1 -1
-0 0 0 1 1 1 1 1 1 1 1 1 1 1 1 0 0 0 0 0 0 0 0 -0 -0 -0 -0 -0 -0 -0 -0 -0 -0 -1 -1 -1 -1 -1 -1 -1 -1 -1 -2 -2
1 1 1 1 1 1 1 0 0 0 0 0 0 0 -0 -0 -0 -0 -1 -0 -0 -1 -1 -1 -1 -1 -1 -1 -1 -1 -1 -1 -1 -1 -1 -2 -2 -2 -2 -2 -2 -2 -2 -2
-0 -0 -0 -0 -0 -0 -0 -1 -1 -1 -1 -1 -1 -1 -1 -1 -1 -1 -1 -1 -1 -1 -1 -1 -1 -2 -2 -2 -1 -1 -2 -2 -2 -2 -2 -2 -2 -3 -3 -3 -3 -3 -2 -3
-1 -1 -1 -1 -1 -1 -1 -1 -1 -1 -1 -1 -2 -2 -2 -2 -2 -2 -2 -2 -2 -2 -2 -2 -2 -2 -2 -2 -2 -2 -2 -2 -3 -3 -3 -3 -3 -3 -3 -3 -4 -3 -3 -3
-2 -2 -2 -2 -2 -2 -2 -2 -2 -2 -2 -2 -2 -2 -2 -2 -3 -3 -3 -3 -2 -3 -3 -3 -3 -3 -3 -3 -3 -3 -3 -3 -3 -3 -4 -4 -4 -4 -4 -4 -4 -4 -4 -4
-3 -3 -3 -3 -3 -3 -3 -3 -3 -3 -3 -3 -3 -3 -3 -3 -3 -3 -3 -3 -3 -3 -4 -4 -4 -4 -4 -4 -4 -4 -4 -4 -4 -4 -4 -4 -4 -4 -5 -5 -5 -5 -5 -5
-3 -3 -3 -4 -3 -3 -3 -3 -3 -3 -3 -3 -3 -3 -3 -3 -4 -4 -4 -4 -4 -4 -4 -4 -4 -4 -4 -4 -4 -4 -4 -5 -5 -5 -5 -5 -5 -5 -5 -5 -5 -5 -5 -5
-4 -4 -4 -4 -4 -4 -4 -4 -4 -4 -4 -4 -4 -4 -4 -4 -4 -4 -4 -4 -4 -4 -4 -5 -5 -5 -5 -5 -5 -5 -5 -5 -5 -5 -6 -6 -6 -6 -6 -6 -6 -6 -6 -6
-4 -4 -4 -4 -4 -4 -4 -4 -4 -4 -4 -4 -5 -5 -5 -5 -5 -5 -5 -5 -5 -5 -5 -5 -5 -5 -5 -6 -6 -6 -6 -6 -6 -6 -6 -6 -6 -6 -6 -6 -6 -6 -6 -6
-5 -5 -5 -5 -5 -5 -5 -5 -5 -5 -5 -5 -5 -5 -5 -5 -5 -5 -5 -5 -6 -6 -6 -6 -6 -6 -6 -6 -6 -6 -6 -6 -6 -6 -7 -7 -7 -7 -7 -7 -7 -7 -7 -6
-6 -6 -6 -6 -6 -6 -6 -6 -6 -6 -6 -6 -6 -6 -6 -6 -6 -6 -6 -6 -6 -6 -6 -6 -6 -7 -7 -7 -7 -7 -7 -7 -7 -7 -7 -7 -7 -7 -7 -7 -7 -7 -7 -7
-6 -6 -6 -6 -6 -6 -6 -6 -6 -7 -7 -7 -7 -7 -7 -7 -7 -7 -7 -7 -7 -7 -7 -7 -7 -7 -7 -7 -7 -7 -7 -7 -7 -7 -7 -7 -7 -8 -7 -7 -7 -7 -7 -7
-7 -7 -7 -7 -7 -7 -7 -7 -7 -7 -7 -7 -8 -8 -8 -7 -7 -8 -8 -8 -8 -8 -8 -8 -8 -8 -8 -8 -7 -8 -8 -8 -8 -8 -8 -8 -8 -8 -8 -8 -8 -8 -8 -8
-8 -8 -8 -8 -8 -8 -8 -8 -8 -8 -8 -8 -8 -8 -8 -8 -8 -8 -8 -8 -8 -8 -8 -8 -8 -8 -8 -8 -8 -8 -8 -8 -8 -8 -8 -8 -8 -8 -8 -8 -8 -8 -8 -8
-8 -8 -8 -9 -9 -9 -9 -9 -9 -9 -9 -8 -8 -8 -9 -9 -9 -9 -9 -9 -9 -9 -9 -9 -9 -9 -9 -9 -9 -8 -8 -9 -9 -9 -9 -9 -9 -8 -8 -8 -8 -8 -8 -8
-9 -9 -9 -9 -9 -9 -9 -9 -9 -9 -9 -9 -9 -9 -9 -9 -9 -9 -9 -9 -9 -9 -9 -9 -9 -9 -9 -9 -9 -9 -9 -9 -9 -9 -9 -9 -9 -9 -9 -9 -9 -9 -9 -9
Wind_Speed
10 9 7 10 11 9 10 10 10 10 11 12 9 8 7 5 3 3 2 2 3 3 3 2 2 2 2 2 2 2 2 2 2 2 2 2 3 4 4 5 5 4 4 4
8 8 8 12 13 12 13 11 12 12 13 10 6 4 4 5 5 4 4 3 3 3 3 3 3 3 2 2 2 2 2 2 1 1 1 1 2 3 3 3 4 4 4 5
7 6 6 10 11 11 9 9 9 13 12 6 3 5 6 6 6 6 5 4 3 3 4 4 3 3 3 2 2 2 2 1 1 1 1 2 1 1 2 3 3 4 4 5
5 3 9 9 5 9 10 12 11 10 7 6 6 5 4 4 6 5 4 4 3 3 3 2 2 2 2 1 2 2 1 1 1 1 1 2 1 1 1 1 2 2 3 4
4 6 10 9 5 4 6 9 7 9 7 4 1 1 2 2 2 4 4 3 3 3 3 2 2 2 2 1 1 1 1 1 1 1 1 1 2 2 1 1 2 2 2 3
5 6 8 6 4 4 3 7 5 5 6 4 3 2 5 2 0 1 1 1 1 1 2 2 1 2 2 2 1 1 1 1 1 1 1 2 2 2 1 1 2 2 2 2
8 8 8 5 5 2 4 6 4 3 4 5 6 6 3 2 1 2 2 2 2 3 2 1 1 2 2 1 0 1 1 1 1 1 1 1 1 1 1 1 1 1 1 2
5 7 8 3 1 2 5 3 2 2 2 2 2 2 2 2 2 2 3 3 3 3 2 2 2 3 2 1 1 1 1 1 1 1 1 1 1 1 1 1 1 1 1 2
6 6 4 2 2 3 1 1 2 1 1 2 3 3 3 2 2 2 3 3 3 3 3 2 2 2 2 1 1 1 2 1 1 2 2 1 1 1 1 1 1 1 1 2
5 6 7 6 5 4 3 2 2 1 1 3 3 3 2 2 2 3 3 2 3 4 3 2 2 2 1 0 1 1 1 1 1 2 2 2 2 1 1 1 1 2 2 2
7 8 6 6 4 4 4 3 2 2 2 2 3 3 2 2 2 2 2 2 3 3 2 1 2 2 2 1 1 2 1 1 2 2 2 2 2 2 2 2 2 3 3 2
8 6 5 7 6 3 2 2 1 1 2 2 3 3 2 2 2 2 2 3 3 3 2 2 2 2 2 2 1 2 2 2 2 2 2 2 2 3 4 3 5 5 5 4
7 6 5 6 4 3 2 2 1 1 1 2 2 2 2 2 2 2 3 3 2 2 2 2 2 3 3 2 2 1 1 1 1 1 2 2 2 2 4 5 5 5 6 6
5 4 4 4 3 3 1 1 1 2 2 2 2 2 2 3 3 2 2 1 1 2 2 2 2 3 3 2 1 1 1 1 1 1 1 2 2 2 2 3 4 4 5 6
3 2 3 2 2 2 1 1 2 2 3 3 2 2 3 3 2 1 1 1 2 2 2 2 2 3 3 2 2 1 1 1 1 1 2 2 2 2 2 3 3 4 4 5
4 3 2 2 2 2 2 2 1 1 2 2 2 2 2 2 2 2 2 2 2 2 2 2 2 3 3 3 2 2 2 3 3 2 2 2 2 3 3 3 4 4 4 4
3 3 3 3 3 3 2 2 1 1 1 2 2 2 2 3 3 2 2 2 2 2 2 2 3 3 3 3 2 2 2 3 4 3 2 3 3 3 4 4 4 4 5 5
2 2 2 1 1 2 2 2 2 2 2 2 2 2 2 2 1 1 1 2 2 3 3 3 3 3 3 3 2 2 2 2 2 3 3 3 4 4 4 4 5 5 5 5
5 4 3 3 2 2 2 2 2 2 2 2 2 1 1 0 0 1 1 2 2 3 3 3 5 4 3 4 4 2 2 2 3 3 3 5 5 4 4 4 4 4 5 4
6 5 5 5 5 4 3 2 2 2 2 2 2 2 2 2 1 1 1 1 2 2 3 3 3 3 3 4 4 2 2 3 3 3 4 4 4 4 4 5 5 5 5 4
6 5 5 5 5 5 4 4 3 3 3 2 2 1 1 2 2 1 1 2 3 3 3 4 3 3 3 4 4 2 2 3 3 3 3 4 4 5 5 5 5 5 5 5
5 5 5 5 5 5 5 4 3 3 3 3 2 2 2 2 2 2 2 2 3 5 4 3 3 5 6 6 2 2 3 3 3 3 3 4 4 5 5 5 5 5 5 5
5 5 5 5 5 4 4 4 4 3 3 3 2 2 2 2 2 2 3 3 3 6 5 3 6 8 8 4 2 3 3 4 4 4 4 4 4 5 5 6 5 5 5 5
5 5 5 5 4 4 4 4 4 3 2 2 2 2 2 2 2 2 2 5 7 7 4 6 8 9 7 3 3 3 4 4 4 4 4 4 4 5 5 5 5 5 5 6
5 5 5 5 5 4 4 4 4 4 3 3 3 4 3 2 2 3 3 4 6 7 4 6 9 8 5 3 3 4 4 4 5 4 4 4 5 5 5 5 5 5 5 5
4 4 4 4 3 3 3 3 3 3 4 4 4 3 3 3 3 3 3 4 5 7 5 4 5 6 4 4 4 4 4 5 5 5 5 5 5 6 5 5 6 5 5 5
4 4 4 4 4 4 4 4 4 4 4 4 4 4 4 4 3 4 4 4 4 4 4 4 4 4 4 4 4 4 4 4 4 5 5 5 5 5 6 6 5 5 5 4
Wind_Direction
259 265 260 260 262 247 230 224 229 248 249 258 250 242 240 234 210 191 197 210 203 205 202 200 212 221 205 202 198 184 172 198 219 239 228 205 203 199 193 189 195 194 196 205
276 266 265 269 261 250 245 239 240 254 263 258 252 228 234 221 197 197 211 219 209 200 194 200 210 218 212 207 199 178 184 227 257 275 278 252 221 198 188 192 194 194 204 209
269 284 302 268 242 229 233 227 218 239 251 250 237 224 223 211 195 200 206 212 210 207 205 211 214 211 206 200 183 174 189 224 241 251 272 275 262 186 195 200 196 206 214 214
261 277 248 250 225 216 229 241 231 238 241 226 228 233 224 203 190 201 203 201 206 207 204 206 200 195 185 171 164 167 184 222 237 244 263 276 258 221 227 223 211 220 227 224
216 244 265 279 260 222 225 254 243 236 239 229 197 58 311 253 206 205 200 195 199 198 186 172 176 176 148 135 144 164 203 232 247 232 236 248 252 249 256 242 244 238 233 223
212 234 247 257 278 255 204 259 272 237 228 206 153 201 251 245 268 93 111 124 144 142 132 140 161 144 137 143 143 222 251 261 269 248 229 242 248 253 261 237 245 245 252 240
225 238 259 282 302 18 190 260 298 245 227 200 200 219 213 150 92 97 92 85 93 101 107 128 126 114 117 111 217 270 304 349 348 287 251 250 258 265 250 242 226 229 253 268
212 230 253 297 79 200 248 304 303 296 242 207 199 126 111 109 100 99 87 78 86 92 74 59 90 103 95 53 325 17 47 35 0 343 332 344 326 318 300 229 245 269 285 296
212 233 280 298 249 270 308 312 312 336 1 127 120 119 113 103 97 92 89 89 93 99 79 52 69 102 100 344 14 54 59 38 7 6 2 359 351 340 343 324 272 276 278 286
254 270 292 301 305 315 309 295 317 32 55 100 112 119 111 103 91 83 76 84 92 95 86 47 32 53 78 20 40 70 55 22 21 24 10 8 1 353 341 311 291 275 268 273
261 281 298 298 296 298 317 340 20 28 49 107 113 107 109 104 95 87 75 73 85 92 87 46 27 25 14 19 67 69 51 34 22 17 10 3 356 337 313 285 264 272 275 268
254 264 262 278 285 286 290 305 325 13 45 71 104 115 101 101 99 97 85 76 73 69 62 36 29 16 1 4 45 69 40 21 7 359 359 355 352 352 347 329 317 307 297 285
256 269 269 275 283 289 276 286 341 53 97 93 78 109 109 103 96 93 84 73 68 55 39 29 28 9 350 350 17 51 26 343 342 343 337 329 326 328 332 339 338 327 316 306
273 276 278 279 282 294 296 312 42 55 69 98 93 91 101 97 91 83 70 46 41 42 33 31 23 354 338 348 15 12 343 335 335 312 305 303 301 304 305 308 318 323 323 318
308 283 260 288 336 1 34 64 70 67 72 70 76 88 99 103 101 85 56 41 51 45 27 28 22 350 343 353 10 357 345 335 325 311 304 297 296 300 300 299 300 306 313 319
328 352 9 32 22 28 44 62 82 63 75 84 77 70 84 101 99 76 49 48 57 25 4 8 358 341 343 356 3 357 347 338 337 325 319 317 313 307 305 303 302 304 303 303
11 5 9 23 24 30 40 56 77 77 76 81 78 68 73 79 73 58 40 34 36 1 345 350 340 343 352 353 356 346 339 333 333 329 319 312 311 306 301 298 295 296 294 296
4 359 10 8 9 19 20 34 45 47 57 57 58 64 60 64 55 21 11 23 25 7 353 349 351 354 355 350 345 337 333 325 323 318 315 313 310 303 298 294 292 292 295 301
20 21 23 23 23 42 36 30 32 36 41 54 56 41 28 35 11 353 13 20 8 347 339 345 347 353 343 337 338 326 323 323 323 319 316 313 315 308 303 300 296 295 296 299
18 25 31 30 30 35 27 17 20 27 34 52 54 39 21 4 7 11 17 347 309 293 307 329 341 339 330 324 329 322 316 311 307 308 311 309 305 304 301 299 296 294 296 296
14 20 25 24 23 23 19 14 18 16 17 34 47 28 353 341 346 350 356 328 320 320 325 331 334 320 317 319 325 318 311 308 304 301 303 305 305 303 301 300 299 297 295 296
10 17 18 19 22 14 9 16 23 22 21 21 18 11 1 343 338 336 309 284 309 329 335 323 318 319 324 326 320 309 304 299 295 293 293 296 298 301 301 300 297 295 295 294
8 13 14 13 11 4 6 14 16 20 18 8 358 351 338 320 317 319 319 321 321 326 329 316 320 324 327 329 313 304 299 295 292 290 290 290 291 293 294 294 293 292 291 290
8 10 8 6 13 20 11 2 4 8 5 354 348 341 333 330 328 309 295 317 327 326 325 322 327 328 330 327 308 301 296 293 290 289 289 289 290 291 291 291 292 291 288 286
4 5 7 9 11 5 356 355 359 1 359 356 349 343 334 314 300 311 314 316 323 327 322 325 328 329 329 312 306 301 297 292 293 296 292 294 292 290 288 288 288 290 288 286
1 358 354 354 349 347 348 351 352 348 347 344 339 333 330 325 314 312 314 314 314 320 319 311 313 317 314 309 306 304 302 303 305 302 295 293 291 289 288 288 288 287 285 281
358 355 353 355 356 354 350 348 345 340 338 331 324 328 329 328 326 324 320 318 318 317 313 310 310 309 308 307 306 304 302 300 298 296 294 291 290 288 289 289 289 287 285 281
Height
1491 1488 1488 1486 1483 1483 1484 1482 1482 1473 1470 1462 1460 1459 1457 1457 1457 1457 1457 1457 1457 1457 1457 1457 1457 1457 1457 1457 1458 1457 1457 1457 1457 1458 1458 1459 1459 1460 1461 1462 1464 1465 1466 1467
1491 1486 1485 1481 1477 1477 1475 1473 1471 1467 1463 1456 1455 1455 1454 1454 1454 1454 1454 1455 1454 1454 1454 1455 1455 1455 1455 1455 1455 1456 1455 1455 1455 1455 1455 1456 1456 1457 1458 1459 1460 1461 1462 1463
1491 1485 1483 1478 1468 1468 1467 1464 1464 1461 1455 1453 1453 1452 1451 1450 1451 1451 1451 1452 1452 1452 1452 1452 1452 1453 1453 1453 1453 1453 1453 1454 1454 1453 1453 1453 1453 1453 1454 1455 1456 1457 1458 1459
1490 1487 1486 1464 1457 1457 1457 1454 1454 1451 1449 1449 1449 1448 1448 1448 1448 1448 1448 1449 1449 1449 1450 1450 1450 1450 1451 1451 1451 1451 1451 1452 1452 1452 1451 1451 1451 1451 1451 1452 1453 1454 1454 1455
1487 1483 1472 1461 1455 1454 1455 1451 1448 1448 1446 1447 1447 1447 1447 1446 1446 1445 1446 1446 1446 1447 1447 1448 1448 1448 1448 1449 1449 1449 1449 1449 1449 1450 1449 1449 1448 1448 1449 1449 1449 1450 1450 1451
1483 1478 1469 1456 1451 1448 1450 1450 1445 1444 1444 1444 1445 1448 1446 1444 1444 1443 1443 1444 1444 1445 1445 1445 1446 1446 1446 1446 1446 1446 1447 1447 1447 1447 1447 1447 1446 1446 1446 1446 1446 1447 1447 1448
1477 1473 1462 1454 1450 1448 1453 1448 1443 1442 1441 1441 1442 1442 1442 1442 1442 1442 1442 1442 1443 1443 1443 1444 1444 1444 1444 1444 1444 1444 1445 1445 1445 1445 1444 1444 1443 1443 1443 1443 1443 1443 1444 1444
1472 1471 1463 1452 1450 1452 1448 1444 1442 1440 1439 1439 1439 1439 1440 1440 1440 1440 1441 1441 1441 1441 1442 1442 1442 1442 1442 1442 1442 1443 1442 1442 1443 1442 1442 1441 1441 1440 1440 1440 1440 1440 1440 1440
1464 1460 1453 1450 1448 1447 1445 1443 1441 1439 1439 1438 1438 1438 1439 1440 1440 1439 1440 1440 1440 1440 1440 1441 1441 1441 1441 1441 1441 1441 1440 1440 1440 1440 1439 1439 1439 1438 1438 1437 1437 1437 1437 1436
1459 1454 1451 1449 1446 1445 1444 1442 1440 1438 1438 1437 1437 1437 1438 1438 1438 1438 1439 1439 1439 1439 1439 1439 1440 1440 1440 1440 1440 1439 1438 1438 1438 1437 1436 1436 1436 1436 1435 1435 1435 1434 1434 1433
1455 1451 1448 1445 1444 1444 1442 1440 1438 1438 1438 1437 1437 1437 1437 1437 1437 1437 1438 1438 1438 1438 1438 1438 1438 1438 1438 1438 1438 1438 1437 1436 1435 1435 1434 1434 1434 1433 1433 1433 1433 1432 1431 1431
1450 1447 1447 1444 1442 1442 1440 1439 1438 1437 1436 1436 1436 1436 1436 1437 1437 1437 1437 1437 1437 1437 1437 1437 1437 1437 1437 1437 1437 1436 1435 1434 1434 1433 1433 1432 1431 1431 1430 1430 1430 1429 1428 1428
1444 1443 1442 1440 1439 1439 1438 1437 1436 1435 1434 1434 1435 1435 1435 1436 1436 1436 1437 1436 1436 1437 1437 1437 1436 1436 1436 1436 1435 1434 1433 1433 1432 1431 1431 1430 1429 1428 1427 1426 1426 1426 1425 1424
1440 1439 1438 1436 1436 1435 1435 1434 1434 1434 1433 1433 1434 1434 1434 1434 1435 1436 1436 1436 1436 1436 1436 1435 1435 1435 1435 1434 1433 1433 1432 1431 1430 1429 1428 1427 1427 1426 1425 1423 1422 1421 1421 1421
1436 1436 1435 1433 1433 1432 1432 1432 1432 1432 1432 1433 1433 1434 1434 1434 1435 1435 1435 1435 1435 1435 1435 1434 1434 1433 1433 1432 1431 1431 1430 1429 1428 1427 1426 1425 1424 1423 1422 1421 1420 1419 1418 1417
1434 1433 1432 1431 1431 1430 1430 1430 1431 1431 1431 1432 1433 1434 1434 1434 1434 1434 1434 1434 1434 1434 1433 1433 1432 1432 1431 1430 1429 1428 1427 1426 1425 1424 1423 1422 1421 1420 1419 1418 1417 1416 1415 1414
1433 1431 1430 1430 1430 1429 1429 1430 1430 1431 1431 1432 1432 1433 1433 1433 1433 1433 1434 1433 1433 1433 1432 1431 1431 1430 1429 1428 1427 1426 1425 1424 1422 1421 1420 1419 1418 1417 1416 1415 1414 1412 1411 1410
1433 1432 1431 1430 1429 1429 1429 1430 1430 1430 1431 1431 1432 1432 1432 1432 1432 1432 1432 1432 1432 1431 1431 1430 1429 1428 1427 1426 1425 1423 1422 1421 1420 1419 1418 1417 1415 1414 1413 1412 1410 1409 1408 1407
1433 1431 1431 1430 1430 1430 1430 1430 1430 1430 1431 1431 1431 1431 1431 1431 1431 1431 1431 1430 1430 1429 1428 1428 1427 1426 1424 1423 1422 1421 1420 1419 1418 1416 1415 1414 1413 1411 1410 1409 1407 1406 1404 1403
1433 1431 1431 1430 1430 1430 1430 1430 1430 1430 1430 1430 1430 1430 1430 1430 1430 1430 1429 1429 1428 1427 1426 1425 1424 1423 1422 1421 1420 1418 1417 1416 1415 1413 1412 1411 1409 1408 1406 1405 1404 1402 1401 1400
1433 1432 1431 1431 1430 1430 1430 1429 1429 1429 1429 1429 1429 1428 1428 1428 1428 1428 1427 1426 1426 1425 1424 1423 1422 1420 1419 1418 1417 1415 1414 1413 1412 1410 1409 1407 1406 1404 1403 1401 1400 1399 1397 1396
1435 1433 1432 1431 1430 1429 1429 1429 1428 1427 1427 1427 1427 1427 1427 1426 1426 1425 1425 1424 1423 1422 1421 1420 1418 1417 1416 1415 1413 1412 1411 1409 1408 1407 1405 1404 1402 1400 1399 1397 1396 1394 1393 1391
1435 1434 1432 1431 1430 1429 1428 1428 1427 1426 1426 1426 1425 1425 1424 1424 1423 1422 1421 1421 1420 1419 1417 1416 1415 1414 1412 1411 1409 1408 1407 1405 1404 1403 1401 1400 1398 1396 1395 1393 1391 1390 1388 1386
1436 1434 1433 1432 1430 1429 1428 1427 1426 1425 1425 1424 1424 1423 1422 1421 1420 1420 1419 1418 1417 1415 1414 1412 1411 1410 1408 1407 1405 1404 1403 1401 1400 1398 1397 1395 1394 1392 1390 1389 1387 1385 1383 1382
1436 1435 1433 1431 1430 1428 1427 1426 1425 1424 1423 1422 1422 1421 1420 1419 1418 1416 1415 1414 1413 1412 1410 1409 1407 1406 1404 1403 1401 1400 1398 1397 1395 1394 1392 1391 1389 1388 1386 1384 1382 1380 1379 1378
1436 1434 1433 1431 1430 1428 1427 1425 1424 1423 1421 1420 1419 1418 1417 1416 1414 1413 1412 1411 1409 1408 1406 1405 1403 1402 1400 1399 1397 1396 1394 1393 1391 1390 1388 1386 1385 1383 1381 1380 1378 1376 1375 1374
1435 1433 1432 1430 1429 1427 1425 1424 1422 1421 1420 1418 1416 1415 1414 1412 1411 1410 1408 1407 1405 1404 1402 1401 1399 1398 1396 1395 1393 1391 1390 1388 1387 1385 1384 1382 1380 1379 1377 1375 1374 1372 1371 1369